{"data":{"norad_id":62482,"intl_designator":"2024-254W","name":"STARLINK-32699","alt_names":[],"object_type":"PAYLOAD","status":"ACTIVE","operator":null,"country":"US","launch_date":"2024-12-31","launch_site_code":"AFETR","launch_vehicle":null,"mission":null,"orbit_class":"UNKNOWN","rcs_meters":null,"size_class":null,"mass_kg":null,"dimensions":null,"purposes":["comms"],"wikipedia_slug":null,"has_3d_model":false,"image_url":null,"decayed_at":null,"tle_current":{"epoch":"2026-05-25T04:15:07.588224Z","epoch_age_seconds":56424,"freshness":"FRESH","line1":"1 62482U 24254W   26145.17717116  .00017412  00000+0  64067-3 0  9998","line2":"2 62482  43.0035 307.6226 0002487 271.1468  88.9098 15.27584576 79160","mean_motion":15.27584576,"eccentricity":0.0002487,"inclination_deg":43.0035,"raan_deg":307.6226,"arg_perigee_deg":271.1468,"mean_anomaly_deg":88.9098,"bstar":0.00064067,"rev_number":7916,"period_min":94.266466330176,"perigee_km":481.32902030929,"apogee_km":484.74176745801,"semimajor_km":6861.1723938837,"source":"CELESTRAK","updated_at":"2026-05-25T13:38:19.695823Z"}}}